This demonstration page uses our WeatherBlox Daily Observations layout. Learn more.

Left ArrowRight Arrow

41.86663, -103.66717

Hourly Observations for March 14, 2021

Temp ( °F °C ) Dew Point ( °F °C ) Humidity (%) Winds ( mph kmh ) Pressure ( in mb ) Visibility ( mi km ) Precip ( " mm )
12:01 am 00:01 Cloudy with Light Rain 37 3 N/A N/A ENE 25 41 30 1016 7 11.26538 0.001 0.001
12:20 am 00:20 Cloudy with Light Rain 37 3 N/A N/A ENE 31 50 29.99 1016 8 12.87472 0.001 0.001
12:24 am 00:24 Cloudy with Light Rain 37 3 N/A N/A ENE 28 44 29.98 1015 9 14.48406 0.001 0.001
12:40 am 00:40 Cloudy 37 3 N/A N/A ENE 26 43 29.98 1015 9 14.48406 0.001 0.001
12:53 am 00:53 Cloudy with Light Rain 37 3 N/A N/A ENE 29 46 29.95 1014 6 9.65604 0.01 0.254
1:08 am 01:08 Cloudy with Light Rain 37 3 N/A N/A ENE 29 46 29.97 1015 6 9.65604 0.01 0.254
1:37 am 01:37 Cloudy with Light Rain 37 3 N/A N/A ENE 23 37 29.97 1015 7 11.26538 0.02 0.508
1:53 am 01:53 Cloudy with Light Rain 37 3 N/A N/A ENE 25 41 29.93 1014 10 16.0934 0.02 0.508
3:25 am 03:25 Cloudy with Haze 37 3 N/A N/A ENE 23 37 29.92 1013 6 9.65604 0.001 0.001
3:41 am 03:41 Cloudy with Light Rain 37 3 N/A N/A ENE 25 41 29.93 1014 5 8.0467 0.001 0.001
3:53 am 03:53 Cloudy 37 3 N/A N/A ENE 24 39 29.91 1013 10 16.0934 0.001 0.001
4:21 am 04:21 Cloudy with Light Rain 37 3 N/A N/A E 23 37 29.93 1014 4 6.43736 0.01 0.254
4:53 am 04:53 Cloudy with Rain 37 3 N/A N/A NE 29 46 29.86 1011 5 8.0467 0.08 2.032
5:12 am 05:12 Windy with Snow Likely 36 2 N/A N/A ENE 28 44 29.92 1013 2.5 4.02335 0.04 1.016
5:22 am 05:22 Windy with Snow Likely 36 2 N/A N/A ENE 29 46 29.92 1013 2 3.21868 0.06 1.524
5:39 am 05:39 Windy with Snow Likely 36 2 N/A N/A ENE 25 41 29.92 1013 2 3.21868 0.09 2.286
5:53 am 05:53 Windy with Snow Likely 34 1 N/A N/A ENE 22 35 29.9 1012 1.5 2.41401 0.12 3.048
6:00 am 06:00 Windy with Snow Likely 34 1 N/A N/A ENE 26 43 29.93 1014 1.5 2.41401 0.02 0.508
6:18 am 06:18 Windy with Snow Likely 34 1 N/A N/A NE 24 39 29.92 1013 2 3.21868 0.05 1.27
6:29 am 06:29 Windy with Snow Likely 36 2 N/A N/A NE 28 44 29.9 1012 1.5 2.41401 0.06 1.524
6:53 am 06:53 Windy with Snow Likely 34 1 N/A N/A NE 30 48 29.85 1011 1.25 2.011675 0.13 3.302
7:04 am 07:04 Windy with Snow Likely 36 2 N/A N/A NE 30 48 29.88 1012 1.5 2.41401 0.001 0.001
7:24 am 07:24 Windy with Snow Likely 36 2 N/A N/A NE 30 48 29.87 1011 3 4.82802 0.02 0.508
7:38 am 07:38 Windy with Snow Likely 36 2 N/A N/A NE 28 44 29.88 1012 5 8.0467 0.02 0.508
7:53 am 07:53 Cloudy with Light Rain 36 2 N/A N/A ENE 28 44 29.85 1011 9 14.48406 0.02 0.508
8:21 am 08:21 Windy with Snow Likely 36 2 N/A N/A NE 37 59 29.86 1011 1.5 2.41401 0.001 0.001
8:29 am 08:29 Windy with Snow Likely 34 1 N/A N/A NE 33 54 29.87 1012 0.75 1.207005 0.01 0.254
8:37 am 08:37 undefined 34 1 N/A N/A undefined N/A 29.87 1012 N/A 0.01 0.254
8:53 am 08:53 undefined N/A N/A N/A undefined N/A N/A N/A 0.01 0.254
9:53 am 09:53 undefined N/A N/A N/A undefined N/A N/A N/A 0 0
10:53 am 10:53 undefined N/A N/A N/A undefined N/A N/A N/A 0 0
11:53 am 11:53 undefined N/A N/A N/A undefined N/A N/A N/A 0 0
12:53 pm 12:53 undefined N/A N/A N/A undefined N/A N/A N/A 0 0
1:53 pm 13:53 undefined N/A N/A N/A undefined N/A N/A N/A 0 0
2:53 pm 14:53 undefined N/A N/A N/A undefined N/A N/A N/A 0 0
3:53 pm 15:53 undefined N/A N/A N/A undefined N/A N/A N/A 0 0
4:53 pm 16:53 undefined 34 1 N/A N/A NE 26 43 29.9 1013 8 12.87472 0 0
5:33 pm 17:33 Cloudy 34 1 N/A N/A NE 28 44 29.96 1015 7 11.26538 0 0
5:53 pm 17:53 Cloudy 34 1 N/A N/A NE 29 46 29.92 1013 10 16.0934 0 0
6:03 pm 18:03 Cloudy 34 1 N/A N/A NE 30 48 29.97 1015 9 14.48406 0 0
6:53 pm 18:53 Cloudy 32 0 N/A N/A NE 23 37 29.95 1014 10 16.0934 0 0
7:13 pm 19:13 Cloudy 32 0 N/A N/A NE 24 39 30.01 1016 10 16.0934 0 0
7:53 pm 19:53 Cloudy 31 -0.6 30 -1.1 96 96 NNE 24 39 29.96 1015 10 16.0934 0 0
8:37 pm 20:37 Cloudy 31 -0.6 30 -1.1 96 96 NNE 24 39 30.03 1017 9 14.48406 0 0
8:53 pm 20:53 Cloudy with Mist and Fog 30 -1.1 30 -1.1 100 100 NNE 26 43 30.03 1017 6 9.65604 0 0
9:16 pm 21:16 Cloudy 30 -1.1 28 -2.2 92 92 NNE 23 37 30.04 1017 9 14.48406 0 0
9:53 pm 21:53 Cloudy 30 -1.1 28 -2.2 92 92 NNE 25 41 30.04 1017 8 12.87472 0 0
10:32 pm 22:32 Cloudy 30 -1 27 -3 86 86 NE 23 37 30.05 1018 10 16.0934 0 0
10:53 pm 22:53 Cloudy 30 -1.1 27 -2.8 88 88 NNE 24 39 30.04 1017 10 16.0934 0 0
11:00 pm 23:00 Cloudy 30 -1.1 27 -2.8 88 88 NNE 24 39 30.04 1017 10 16.0934 0 0
11:18 pm 23:18 Cloudy 30 -1.1 27 -2.8 88 88 NNE 18 30 30.04 1017 10 16.0934 0 0
11:53 pm 23:53 Cloudy 30 -1.1 27 -2.8 88 88 NE 17 28 30.02 1017 10 16.0934 0 0

Powered by AerisWeather